[[{"header":{"parameterUnit":"m.s-1","parameterCategory":1,"la1":30.2991,"la2":30.254,"lo1":-89.0895,"lo2":-89.0444,"dy":0.0017,"dx":0.0017,"nx":28,"ny":28,"refTime":"2023-10-20T09:00:00:Z","depth":0,"parameterNumber":2,"parameterNumberName":"U-component_of_WINDS"},"data":[0,0,0,0,0,0,0,0,0,0,0,0,0,0,0,0,0,0,0,0,0,0,0,0,0,0,0,0,0,0,0,0,0,0,0,0,0,0,0,0,0,0,0,0,0,0,0,0,0,0,0,0,0,0,0,0,0,0,0.0466,0.0467,0,0.0541,0.0542,0.0543,0.0578,0.0578,0.0578,0.0578,0.0655,0.0657,0.0659,0,0,0,0,0,0,0,0,0,0,0,0,0,0.0353,0.0355,0.0466,0.0467,0.0468,0.0541,0.0542,0.0543,0.0578,0.0578,0.0578,0.0578,0.0654,0.0656,0.0659,0,0,0,0,0,0,0,0,0,0,0,0,0,0.0412,0.0355,0.0466,0.0494,0.0498,0.0541,0.0542,0.0543,0.0578,0.0578,0.0578,0.0578,0.0653,0.0656,0.0659,0.0679,0,0,0.0669,0.067,0,0,0,0,0,0,0,0,0.0409,0.0416,0.0489,0.0492,0.0496,0.055,0.053,0.0589,0.0578,0.0548,0.0578,0.0578,0.062,0.0626,0.064,0.0683,0.0686,0.0669,0.0671,0.0672,0.0673,0,0,0,0,0,0,0,0.0405,0.0413,0.0496,0.049,0.0494,0.0503,0.0512,0.0541,0.0583,0.055,0.0553,0.0562,0.0622,0.0637,0.0642,0.0687,0.0669,0.0672,0.0673,0.0675,0.0752,0.0752,0,0,0,0,0,0,0.0396,0.041,0.0493,0.0498,0.0452,0.0505,0.0515,0.0533,0.0583,0.0591,0.0562,0.0563,0.0632,0.0638,0.0645,0.0672,0.0672,0.0675,0.0677,0.0751,0.0752,0.0752,0,0,0,0,0,0,0.0393,0.0403,0.049,0.0455,0.0466,0.0507,0.0528,0.0534,0.055,0.0591,0.0599,0.0569,0.0632,0.064,0.0671,0.0675,0.0676,0.0679,0.0751,0.0751,0.0752,0.0727,0,0,0,0,0,0,0.039,0.0402,0.041,0.0455,0.0468,0.0515,0.0528,0.0536,0.0555,0.0557,0.0601,0.0608,0.0632,0.0666,0.0674,0.068,0.0682,0.0751,0.0751,0.0752,0.0728,0.0727,0.0726,0,0,0,0,0,0.0386,0.04,0.041,0.042,0.0479,0.0515,0.0523,0.0551,0.0555,0.0564,0.0591,0.0606,0.0674,0.0669,0.0678,0.0685,0.0751,0.0751,0.0752,0.0728,0.0727,0.0726,0,0,0,0,0,0,0.0354,0.0406,0.0418,0.0447,0.0476,0.0521,0.0533,0.0549,0.0577,0.0578,0.0612,0.0622,0.0649,0.067,0.0664,0.0707,0.0714,0.0716,0.0693,0.0692,0.0691,0.0685,0.0684,0,0,0,0,0,0.0351,0.0376,0.042,0.0441,0.0455,0.0491,0.0508,0.0527,0.0559,0.0571,0.0601,0.063,0.0659,0.0676,0.0704,0.0731,0.0741,0.074,0.0739,0.0738,0.074,0.0756,0.0756,0.0753,0.0753,0.0753,0,0,0.0344,0.0375,0.0389,0.0435,0.046,0.0486,0.0501,0.0527,0.0546,0.0575,0.0606,0.0628,0.0664,0.0693,0.0707,0.0711,0.0743,0.0738,0.0737,0.074,0.0756,0.0757,0.0757,0.0753,0.0753,0.0753,0,0,0.0344,0.037,0.0391,0.0415,0.0453,0.0478,0.0482,0.0525,0.0541,0.0572,0.0595,0.0618,0.0665,0.069,0.0709,0.0719,0.0735,0.0727,0.0721,0.0737,0.0737,0.0737,0.0742,0.0743,0.0728,0.0728,0.0728,0,0.033,0.0369,0.0399,0.0424,0.0444,0.0472,0.0493,0.0516,0.0561,0.0574,0.0578,0.0639,0.0665,0.07,0.0702,0.0717,0.0724,0.0722,0.0735,0.0735,0.0736,0.074,0.0742,0.0727,0.0727,0.0727,0.0728,0,0.035,0.0377,0.0389,0.0433,0.0454,0.0477,0.0511,0.0529,0.0546,0.057,0.0602,0.0634,0.0669,0.0679,0.0696,0.0717,0.0719,0.0728,0.0735,0.0735,0.0739,0.0741,0.0726,0.0726,0.0726,0.0727,0,0,0.0332,0.0393,0.0397,0.0417,0.0461,0.0482,0.0507,0.0542,0.0557,0.0587,0.0608,0.0648,0.0658,0.0679,0.0699,0.0713,0.0719,0.0721,0.0722,0.072,0.0745,0.0737,0.0739,0.073,0.073,0.0731,0.0742,0,0.0339,0.0384,0.0412,0.0446,0.0472,0.0499,0.052,0.055,0.0572,0.0597,0.0622,0.065,0.066,0.0673,0.0688,0.0715,0.0725,0.0715,0.075,0.0751,0.0741,0.0741,0.0734,0.0743,0.0744,0.0744,0.0744,0,0.0352,0.0382,0.0419,0.0461,0.0473,0.0492,0.0526,0.055,0.0584,0.0599,0.0623,0.0644,0.0671,0.0676,0.0713,0.0706,0.0722,0.0738,0.0739,0.0744,0.0748,0.0746,0.0746,0.0748,0.0747,0.0747,0.0747,0,0.0336,0.0386,0.0415,0.0431,0.0481,0.0493,0.0514,0.0548,0.0568,0.0598,0.0611,0.0644,0.0662,0.0687,0.0716,0.0716,0.0751,0.0758,0.0765,0.0764,0.0771,0.077,0.0774,0.0781,0.0781,0.0781,0.0781,0,0.0341,0.0362,0.0408,0.0426,0.0451,0.0483,0.0507,0.053,0.056,0.0583,0.0608,0.0629,0.0666,0.0691,0.0714,0.0742,0.075,0.0763,0.0769,0.0761,0.076,0.0773,0.0773,0.0781,0.0781,0.0781,0.0781,0,0.0327,0.0358,0.0392,0.0436,0.0448,0.0464,0.0503,0.0521,0.0545,0.0573,0.0582,0.062,0.0651,0.0683,0.0724,0.074,0.0768,0.0775,0.0756,0.076,0.0765,0.0764,0.0778,0.0781,0.0785,0.0785,0.0785,0,0.0328,0.0345,0.0392,0.0409,0.043,0.0457,0.0477,0.051,0.053,0.057,0.0584,0.0617,0.0645,0.0693,0.0725,0.0757,0.0766,0.0769,0.0771,0.0763,0.0767,0.0766,0.0768,0.0768,0.0767,0.0767,0.0767,0,0.0326,0.0341,0.037,0.0404,0.0427,0.0456,0.0485,0.0497,0.0535,0.0557,0.0589,0.0611,0.0654,0.0687,0.0723,0.0745,0.0762,0.0766,0.077,0.0762,0.075,0.0757,0.0754,0.0766,0.0766,0.0766,0.0766,0.0766,0.032,0.0337,0.0373,0.0404,0.043,0.0456,0.0476,0.0503,0.0531,0.0569,0.0586,0.0619,0.0653,0.0703,0.0725,0.0751,0.0756,0.076,0.0762,0.0763,0.0761,0.0746,0.0757,0.0758,0.0758,0.0758,0.0758,0,0.0321,0.0345,0.0373,0.0414,0.0438,0.0453,0.0486,0.0506,0.0534,0.0565,0.0592,0.063,0.0662,0.0696,0.073,0.0744,0.0753,0.0752,0.0751,0.0756,0.0755,0.0748,0.0744,0.0744,0.0744,0.0744,0.0744,0.0744,0.0324,0.0354,0.0373,0.0416,0.044,0.0473,0.049,0.0515,0.054,0.0581,0.0608,0.063,0.0662,0.0699,0.0729,0.0738,0.075,0.0746,0.0758,0.0755,0.0756,0.0757,0.0752,0.0748,0.0748,0.0757,0.0758,0.0758]},{"header":{"parameterUnit":"m.s-1","parameterCategory":1,"la1":30.2991,"la2":30.254,"lo1":-89.0895,"lo2":-89.0444,"dy":0.0017,"dx":0.0017,"nx":28,"ny":28,"refTime":"2023-10-20T09:00:00:Z","depth":0,"parameterNumber":3,"parameterNumberName":"V-component_of_WINDS"},"data":[0,0,0,0,0,0,0,0,0,0,0,0,0,0,0,0,0,0,0,0,0,0,0,0,0,0,0,0,0,0,0,0,0,0,0,0,0,0,0,0,0,0,0,0,0,0,0,0,0,0,0,0,0,0,0,0,0,0,2.2585,2.2584,0,2.2574,2.2574,2.2574,2.2551,2.2551,2.255,2.255,2.2536,2.2536,2.2536,0,0,0,0,0,0,0,0,0,0,0,0,0,2.2583,2.2583,2.2585,2.2584,2.2584,2.2574,2.2574,2.2574,2.2551,2.2551,2.255,2.255,2.2536,2.2536,2.2536,0,0,0,0,0,0,0,0,0,0,0,0,0,2.2579,2.2583,2.2585,2.2572,2.257,2.2575,2.2574,2.2574,2.2551,2.2551,2.255,2.2549,2.2536,2.2536,2.2536,2.2551,0,0,2.2537,2.2537,0,0,0,0,0,0,0,0,2.2579,2.2579,2.2574,2.2573,2.2571,2.2563,2.2569,2.2566,2.2551,2.2558,2.255,2.2549,2.2546,2.2545,2.2544,2.255,2.255,2.2537,2.2537,2.2537,2.2537,0,0,0,0,0,0,0,2.258,2.2579,2.258,2.2574,2.2572,2.2566,2.2565,2.2568,2.2556,2.2558,2.2556,2.2555,2.2545,2.2544,2.2544,2.255,2.2537,2.2537,2.2537,2.2537,2.257,2.2571,0,0,0,0,0,0,2.2582,2.258,2.2581,2.258,2.2574,2.2567,2.2565,2.2567,2.2556,2.2554,2.2556,2.2554,2.2545,2.2544,2.2543,2.2562,2.2537,2.2537,2.2537,2.2569,2.257,2.2571,0,0,0,0,0,0,2.2582,2.2582,2.2581,2.258,2.2579,2.2567,2.2569,2.2567,2.2566,2.2555,2.2552,2.2558,2.2544,2.2543,2.255,2.2561,2.2537,2.2537,2.2568,2.2569,2.2571,2.2598,0,0,0,0,0,0,2.2582,2.2582,2.2588,2.258,2.2579,2.2589,2.257,2.2567,2.2567,2.2565,2.2556,2.2554,2.2543,2.255,2.255,2.2561,2.2537,2.2567,2.2569,2.257,2.2596,2.26,2.2603,0,0,0,0,0,2.2582,2.2595,2.2588,2.2589,2.2586,2.2589,2.2589,2.2578,2.2568,2.2574,2.2566,2.2554,2.256,2.2551,2.2551,2.2562,2.2566,2.2568,2.257,2.2594,2.2599,2.2603,0,0,0,0,0,0,2.2602,2.2593,2.2586,2.2597,2.2594,2.2585,2.2592,2.2583,2.2582,2.258,2.2565,2.2563,2.2572,2.2567,2.2558,2.2577,2.2561,2.2563,2.258,2.2584,2.2588,2.2589,2.2537,0,0,0,0,0,2.2609,2.2613,2.2604,2.2614,2.2613,2.2603,2.2604,2.2596,2.2592,2.2591,2.2584,2.258,2.2581,2.2582,2.2582,2.2595,2.2594,2.2602,2.2606,2.2609,2.2611,2.262,2.2624,2.2577,2.2577,2.2577,0,0,2.262,2.2616,2.2619,2.2618,2.2615,2.262,2.2602,2.2607,2.261,2.2591,2.2598,2.2593,2.2588,2.2599,2.2603,2.2595,2.2624,2.2611,2.2614,2.2614,2.2622,2.2626,2.263,2.2578,2.2578,2.2578,0,0,2.2645,2.2641,2.2651,2.2649,2.2646,2.2639,2.2641,2.2635,2.2631,2.2638,2.2625,2.2628,2.263,2.2628,2.2627,2.2654,2.2643,2.2654,2.2673,2.2681,2.2685,2.2688,2.27,2.2704,2.2656,2.2656,2.2656,0,2.266,2.2667,2.2656,2.2663,2.2664,2.2649,2.2658,2.2657,2.2653,2.2654,2.2645,2.2649,2.2644,2.2655,2.2662,2.2661,2.2664,2.2655,2.2686,2.2689,2.2692,2.2702,2.2706,2.2657,2.2657,2.2657,2.2657,0,2.2686,2.2692,2.2699,2.2699,2.27,2.2708,2.2699,2.2702,2.2694,2.2689,2.2697,2.2692,2.2692,2.2693,2.2685,2.2704,2.2699,2.2688,2.2673,2.2698,2.2708,2.2711,2.2659,2.2659,2.2658,2.2658,0,0,2.2722,2.2718,2.2721,2.2721,2.2718,2.2721,2.2729,2.2731,2.2734,2.2733,2.274,2.2743,2.2734,2.2733,2.2724,2.2732,2.2756,2.272,2.272,2.2728,2.2779,2.2788,2.2793,2.2749,2.2749,2.275,2.278,0,2.2746,2.2761,2.2753,2.2768,2.2774,2.2761,2.2768,2.2767,2.2762,2.2766,2.2761,2.2764,2.2751,2.275,2.2757,2.2752,2.2766,2.2749,2.2755,2.2756,2.2758,2.2797,2.2806,2.2835,2.2783,2.2784,2.2784,0,2.2776,2.2779,2.2795,2.2793,2.2795,2.2802,2.2804,2.2808,2.2807,2.2803,2.2804,2.2794,2.2802,2.2787,2.2798,2.2787,2.2789,2.2787,2.2788,2.2789,2.2772,2.28,2.2843,2.2848,2.279,2.2789,2.2789,0,2.2803,2.281,2.2821,2.2822,2.2819,2.2825,2.2824,2.2822,2.2824,2.2826,2.2828,2.283,2.2831,2.2833,2.2824,2.2814,2.2838,2.2821,2.2836,2.2836,2.2841,2.2841,2.2887,2.2841,2.2841,2.2841,2.2841,0,2.2831,2.2842,2.2834,2.2841,2.2854,2.2844,2.2857,2.2854,2.2853,2.286,2.2848,2.2854,2.2842,2.2848,2.2841,2.2853,2.2853,2.285,2.2849,2.2852,2.2853,2.2854,2.2852,2.2842,2.2842,2.2842,2.2841,0,2.2863,2.2857,2.287,2.2867,2.2867,2.2876,2.2874,2.2881,2.2876,2.2885,2.2887,2.288,2.2886,2.2878,2.2882,2.2878,2.2894,2.2889,2.2895,2.2894,2.291,2.2909,2.2958,2.2965,2.2914,2.2915,2.2915,0,2.2882,2.289,2.289,2.2894,2.2895,2.2901,2.2905,2.2896,2.29,2.2901,2.2908,2.2913,2.2917,2.2927,2.2923,2.2926,2.2922,2.2939,2.2922,2.2926,2.2924,2.2924,2.2926,2.2942,2.2943,2.2943,2.2944,0,2.2916,2.2914,2.292,2.2926,2.293,2.2934,2.2936,2.294,2.2932,2.2937,2.2944,2.2947,2.2954,2.2959,2.2963,2.2961,2.2952,2.2949,2.2953,2.2957,2.2962,2.2961,2.2906,2.2948,2.2948,2.2947,2.2947,2.2947,2.2943,2.2951,2.2953,2.2961,2.2962,2.2966,2.2973,2.2971,2.2977,2.2982,2.2977,2.2986,2.2986,2.299,2.299,2.2997,2.299,2.2995,2.2996,2.2998,2.3001,2.296,2.2997,2.2997,2.2997,2.2997,2.2997,0,2.2979,2.298,2.2987,2.2992,2.2999,2.2991,2.2994,2.2999,2.3008,2.301,2.3015,2.3024,2.3031,2.3027,2.3033,2.3039,2.3035,2.3041,2.3041,2.3042,2.3007,2.3004,2.3045,2.3045,2.3045,2.3045,2.3045,2.3045,2.2998,2.3012,2.3011,2.3026,2.3027,2.3037,2.304,2.3043,2.3045,2.3057,2.3063,2.3061,2.3061,2.3067,2.3073,2.3072,2.3075,2.3083,2.3081,2.3048,2.3044,2.3039,2.3036,2.3084,2.3084,2.3115,2.3116,2.3116]}]]